Location: Albany
(35.0170°S, 117.8920°E)
Time: 17:31:03
(UTC+08:00)

Explorer 11/Cluster Stage 4 - Pass Details

Date: 29 January 2021
Orbit: 467 x 1257 km, 28.8° (Epoch: 02 March)

Event Time Altitude Azimuth Distance (km) Brightness Sun altitude
Rises 07:47:27 0° 288° (WNW) 3,972 9.6 27.5°
Reaches altitude 10° 07:50:35 10° 293° (WNW) 2,906 9.1 28.2°
Maximum altitude 07:57:18 47° 4° (N) 1,216 7.9 29.5°
Drops below altitude 10° 08:02:45 10° 76° (ENE) 2,361 10.5 30.6°
Sets 08:05:04 0° 82° (E) 3,169 10.8 31.1°
